Regional Weather Roundup
Issued by NWS Jackson, KY

Home | Current Version | Previous Version | Text Only | Print | Product List | Glossary Off
Versions: 1 2 3 4 5 6 7 8 9 10 11 12 13 14 15 16 17 18 19 20 21 22 23 24 25 26 27 28 29 30 31 32 33 34 35 36 37 38 39 40 41 42 43 44 45 46 47 48 49 50

000
ASUS43 KJKL 121311
RWRJKL

EAST KENTUCKY HOURLY WEATHER ROUNDUP
NATIONAL WEATHER SERVICE JACKSON KY
900 AM EDT SAT JUL 12 2014

NOTE: "FAIR" INDICATES FEW OR NO CLOUDS BELOW 12,000 FEET WITH
NO SIGNIFICANT WEATHER AND/OR OBSTRUCTIONS TO VISIBILITY.

* THESE REPORTS ARE NOT UNDER NWS QUALITY CONTROL AND MAY NOT
  REPORT WEATHER SUCH AS PRECIPITATION AND FOG.

KYZ079-080-083-085-087-088-110-112-115-119-120-121400
...EASTERN KENTUCKY...

CITY           SKY/WX    TMP DP  RH WIND       PRES   REMARKS
JACKSON        SUNNY     72  63  73 CALM      30.22R
LONDON         SUNNY     71  63  75 S3        30.22R
SOMERSET*      PTSUNNY   70  64  83 S3        30.22S
MONTICELLO*    SUNNY     73  65  76 CALM      30.22R
MIDDLESBORO*   MOSUNNY   68  63  84 CALM      30.24S
HARLAN APT*    MOSUNNY   68  63  83 MISG      30.25S
BIG SANDY*     SUNNY     74  66  75 S3        30.21S
MOREHEAD APT*    N/A     70  63  78 S3        30.22R
$$

KYZ035-036-041-042-044-050-067-078-099-121400
...CENTRAL KENTUCKY...

CITY           SKY/WX    TMP DP  RH WIND       PRES   REMARKS
MT STERLING*   MOSUNNY   72  64  78 SW6       30.21R
FLEMING/MASON* PTSUNNY   68  63  83 S5        30.20S
DANVILLE*      MOSUNNY   75  64  69 S3        30.21S
RICHMOND*      MOSUNNY   75  61  60 CALM      30.20S
LEXINGTON      CLOUDY    72  65  78 S3        30.20R
FRANKFORT      PTSUNNY   71  65  81 CALM      30.18R
$$

KYZ091>093-OHZ055-061-077-WVZ005-015-034-035-042-121400
...SOUTHERN OHIO/WEST VIRGINIA...

CITY           SKY/WX    TMP DP  RH WIND       PRES   REMARKS
COVINGTON      CLOUDY    74  64  71 CALM      30.17R
COLUMBUS       PTSUNNY   75  59  57 SE3       30.17R
DAYTON         PTSUNNY   77  63  61 SW5       30.18R
WILMINGTON     MOSUNNY   73  64  73 S3        30.18R
HUNTINGTON     MOSUNNY   71  65  81 SW5       30.18S
CHARLESTON     MOSUNNY   71  66  84 N3        30.20S
PINEVILLE*     CLOUDY    70  67  92 MISG      30.30F
BECKLEY        MOSUNNY   72  63  73 SE6       30.29S
BLUEFIELD      SUNNY     75  62  64 CALM      30.31S
$$

VAZ002-007-008-TNZ017-027-036-066-071-121400
...SOUTHWEST VIRGINIA/EAST TENNESSEE...

CITY           SKY/WX    TMP DP  RH WIND       PRES   REMARKS
WISE*          PTSUNNY   72  63  73 S3        30.30S
JONESVILLE*    SUNNY     72  66  83 CALM      30.26R
ABINGDON*      SUNNY     74  66  77 E3        30.28R
BRISTOL        MOSUNNY   73  64  73 CALM      30.25R
KNOXVILLE      MOSUNNY   76  69  79 NW3       30.21R
OAK RIDGE      SUNNY     73  64  73 CALM      30.23R
CROSSVILLE     SUNNY     74  66  76 CALM      30.26R
NASHVILLE      MOSUNNY   75  67  76 CALM      30.20R
$$

...KEY TO REMARKS...
VSB - VISIBILITY IN MILES
WCI - WIND CHILL INDEX
HX  - HEAT INDEX

$$



USA.gov is the U.S. government's official web portal to all federal, state and local government web resources and services.